[[{"header":{"parameterUnit":"m.s-1","parameterCategory":1,"la1":30.2991,"la2":30.254,"lo1":-89.0895,"lo2":-89.0444,"dy":0.0017,"dx":0.0017,"nx":28,"ny":28,"refTime":"2025-11-18T09:00:00:Z","depth":0,"parameterNumber":2,"parameterNumberName":"U-component_of_WINDS"},"data":[0,0,0,0,0,0,0,0,0,0,0,0,0,0,0,0,0,0,0,0,0,0,0,0,0,0,0,0,0,0,0,0,0,0,0,0,0,0,0,0,0,0,0,0,0,0,0,0,0,0,0,0,0,0,0,0,0,0,-2.2159,-2.216,0,-2.2288,-2.229,-2.2291,-2.2303,-2.2301,-2.23,-2.2299,-2.2437,-2.2442,-2.2447,0,0,0,0,0,0,0,0,0,0,0,0,0,-2.1928,-2.1932,-2.2159,-2.216,-2.2162,-2.2288,-2.229,-2.2292,-2.2303,-2.2301,-2.23,-2.2298,-2.2436,-2.2441,-2.2447,0,0,0,0,0,0,0,0,0,0,0,0,0,-2.204,-2.1933,-2.2158,-2.2183,-2.2186,-2.2288,-2.229,-2.2292,-2.2303,-2.2301,-2.2299,-2.2297,-2.2434,-2.2441,-2.2448,-2.2536,0,0,-2.2471,-2.2474,0,0,0,0,0,0,0,0,-2.2034,-2.2048,-2.2178,-2.2181,-2.2185,-2.2277,-2.2259,-2.2374,-2.2304,-2.2259,-2.2299,-2.2296,-2.2386,-2.2397,-2.2426,-2.2543,-2.2548,-2.2472,-2.2476,-2.2479,-2.2482,0,0,0,0,0,0,0,-2.2026,-2.2043,-2.221,-2.2179,-2.2184,-2.2189,-2.2203,-2.2281,-2.2333,-2.2263,-2.2264,-2.2279,-2.2388,-2.2419,-2.243,-2.2551,-2.2472,-2.2478,-2.2483,-2.2486,-2.2747,-2.275,0,0,0,0,0,0,-2.2013,-2.2036,-2.2206,-2.2214,-2.2103,-2.2195,-2.221,-2.225,-2.2332,-2.2342,-2.228,-2.2279,-2.2407,-2.2421,-2.2435,-2.2543,-2.2479,-2.2486,-2.2491,-2.2745,-2.2748,-2.2751,0,0,0,0,0,0,-2.2008,-2.2028,-2.2201,-2.2126,-2.2148,-2.2201,-2.2246,-2.2253,-2.2285,-2.2345,-2.2355,-2.2302,-2.2406,-2.2424,-2.2511,-2.2548,-2.249,-2.2497,-2.2742,-2.2746,-2.2749,-2.276,0,0,0,0,0,0,-2.2001,-2.2026,-2.2058,-2.2126,-2.2152,-2.2272,-2.2248,-2.2258,-2.2297,-2.2296,-2.2368,-2.2379,-2.2406,-2.2499,-2.2518,-2.2557,-2.2502,-2.2739,-2.2744,-2.2748,-2.2757,-2.2764,-2.277,0,0,0,0,0,-2.1993,-2.2057,-2.2059,-2.208,-2.2193,-2.2274,-2.2289,-2.2318,-2.23,-2.2334,-2.2373,-2.2376,-2.2541,-2.2508,-2.2529,-2.2571,-2.2737,-2.2742,-2.2748,-2.2754,-2.2763,-2.277,0,0,0,0,0,0,-2.1993,-2.2066,-2.207,-2.2157,-2.2209,-2.2276,-2.2319,-2.2326,-2.2386,-2.2383,-2.2418,-2.2434,-2.252,-2.2555,-2.2516,-2.2662,-2.2638,-2.2648,-2.2635,-2.2644,-2.265,-2.2639,-2.2509,0,0,0,0,0,-2.2003,-2.2061,-2.2123,-2.2195,-2.222,-2.2265,-2.2302,-2.232,-2.2376,-2.2398,-2.2444,-2.25,-2.2565,-2.2607,-2.2669,-2.2763,-2.278,-2.2803,-2.2809,-2.2814,-2.2822,-2.2876,-2.2887,-2.2769,-2.2769,-2.2769,0,0,-2.2024,-2.2072,-2.2107,-2.2196,-2.2238,-2.2299,-2.2284,-2.2349,-2.2396,-2.2409,-2.2492,-2.2529,-2.2594,-2.2684,-2.2727,-2.2716,-2.2859,-2.2821,-2.2825,-2.283,-2.2882,-2.2893,-2.2903,-2.2773,-2.2772,-2.2771,0,0,-2.2095,-2.2136,-2.22,-2.2243,-2.2307,-2.2337,-2.2353,-2.2419,-2.2443,-2.2527,-2.2539,-2.2597,-2.2707,-2.2753,-2.2791,-2.2881,-2.2887,-2.2901,-2.2935,-2.2987,-2.2996,-2.3004,-2.3037,-2.3048,-2.2909,-2.291,-2.291,0,-2.2114,-2.2204,-2.2233,-2.2298,-2.2338,-2.2352,-2.2418,-2.2459,-2.2541,-2.2569,-2.2556,-2.2696,-2.2741,-2.2843,-2.2865,-2.2895,-2.2916,-2.2892,-2.2992,-2.3001,-2.3009,-2.304,-2.3053,-2.2911,-2.2911,-2.291,-2.291,0,-2.2225,-2.2288,-2.2333,-2.241,-2.2455,-2.2521,-2.2561,-2.2604,-2.2619,-2.2651,-2.2738,-2.2793,-2.2867,-2.2893,-2.2909,-2.2999,-2.299,-2.2984,-2.296,-2.3021,-2.3051,-2.3063,-2.2912,-2.2912,-2.2912,-2.2911,0,0,-2.2297,-2.239,-2.2405,-2.2441,-2.2514,-2.2564,-2.2632,-2.2703,-2.2739,-2.2797,-2.2855,-2.2949,-2.2945,-2.2988,-2.301,-2.3055,-2.3124,-2.3044,-2.3046,-2.3056,-2.3227,-2.3229,-2.3242,-2.3129,-2.3131,-2.3133,-2.3221,0,-2.2375,-2.2492,-2.2521,-2.2622,-2.2682,-2.2698,-2.2757,-2.2809,-2.2842,-2.2899,-2.2937,-2.3003,-2.2992,-2.3018,-2.3064,-2.3105,-2.3158,-2.31,-2.3185,-2.3188,-2.3166,-2.3258,-2.3261,-2.3341,-2.3233,-2.3235,-2.3237,0,-2.248,-2.2538,-2.2645,-2.2711,-2.2737,-2.2789,-2.2857,-2.2912,-2.2973,-2.2994,-2.3043,-2.306,-2.3134,-2.3108,-2.3211,-2.317,-2.3208,-2.3234,-2.3238,-2.3246,-2.3214,-2.3268,-2.3367,-2.3379,-2.3255,-2.3254,-2.3253,0,-2.2521,-2.2626,-2.2703,-2.2734,-2.2813,-2.2849,-2.2885,-2.2943,-2.2985,-2.3046,-2.3074,-2.3144,-2.3182,-2.3237,-2.3273,-2.3251,-2.3374,-2.3351,-2.3395,-2.3394,-2.3418,-2.3416,-2.3523,-2.3444,-2.3444,-2.3444,-2.3444,0,-2.2604,-2.2669,-2.2723,-2.277,-2.2844,-2.2878,-2.2951,-2.2988,-2.304,-2.3097,-2.3116,-2.317,-2.3216,-2.3276,-2.3307,-2.3388,-2.3405,-2.3425,-2.3432,-2.3423,-2.342,-2.3446,-2.3441,-2.3447,-2.3446,-2.3446,-2.3445,0,-2.2661,-2.2699,-2.2785,-2.2853,-2.2872,-2.2923,-2.2983,-2.3031,-2.3065,-2.3137,-2.3156,-2.321,-2.3283,-2.3325,-2.3418,-2.3438,-2.3528,-2.3533,-2.3506,-2.3509,-2.355,-2.3545,-2.3677,-2.3697,-2.3606,-2.3606,-2.3607,0,-2.271,-2.276,-2.2833,-2.2872,-2.2907,-2.2969,-2.3011,-2.3048,-2.3092,-2.3166,-2.3206,-2.3279,-2.3339,-2.3455,-2.3504,-2.3576,-2.3582,-2.3624,-2.3593,-2.3582,-2.3582,-2.3578,-2.3583,-2.3628,-2.3629,-2.363,-2.363,0,-2.2794,-2.2811,-2.2869,-2.2936,-2.2985,-2.304,-2.3094,-2.3125,-2.3172,-2.3221,-2.3294,-2.3341,-2.3435,-2.3508,-2.3583,-2.3623,-2.3635,-2.364,-2.3654,-2.3643,-2.3625,-2.3635,-2.3519,-2.3636,-2.3636,-2.3635,-2.3635,-2.3635,-2.2848,-2.2893,-2.2951,-2.3017,-2.3062,-2.3113,-2.3161,-2.3201,-2.3262,-2.334,-2.3359,-2.3436,-2.3499,-2.3602,-2.3643,-2.3706,-2.3699,-2.3719,-2.3724,-2.3728,-2.3729,-2.3617,-2.372,-2.372,-2.372,-2.372,-2.372,0,-2.2931,-2.297,-2.303,-2.3105,-2.3157,-2.3163,-2.3225,-2.3268,-2.3335,-2.3392,-2.345,-2.3536,-2.3607,-2.3663,-2.3737,-2.3777,-2.3785,-2.3795,-2.3792,-2.3801,-2.3731,-2.3711,-2.3788,-2.3788,-2.3788,-2.3787,-2.3787,-2.3787,-2.2981,-2.3057,-2.3082,-2.3182,-2.3222,-2.3295,-2.333,-2.3378,-2.3423,-2.3516,-2.3575,-2.3611,-2.3668,-2.3747,-2.3814,-2.3828,-2.3855,-2.3864,-2.388,-2.3813,-2.3806,-2.3798,-2.378,-2.387,-2.387,-2.3944,-2.3945,-2.3945]},{"header":{"parameterUnit":"m.s-1","parameterCategory":1,"la1":30.2991,"la2":30.254,"lo1":-89.0895,"lo2":-89.0444,"dy":0.0017,"dx":0.0017,"nx":28,"ny":28,"refTime":"2025-11-18T09:00:00:Z","depth":0,"parameterNumber":3,"parameterNumberName":"V-component_of_WINDS"},"data":[0,0,0,0,0,0,0,0,0,0,0,0,0,0,0,0,0,0,0,0,0,0,0,0,0,0,0,0,0,0,0,0,0,0,0,0,0,0,0,0,0,0,0,0,0,0,0,0,0,0,0,0,0,0,0,0,0,0,0.7336,0.7337,0,0.7435,0.7436,0.7437,0.7487,0.7487,0.7487,0.7487,0.7587,0.759,0.7592,0,0,0,0,0,0,0,0,0,0,0,0,0,0.7193,0.7196,0.7336,0.7338,0.7339,0.7434,0.7436,0.7437,0.7487,0.7487,0.7487,0.7487,0.7586,0.7589,0.7593,0,0,0,0,0,0,0,0,0,0,0,0,0,0.727,0.7197,0.7336,0.7375,0.738,0.7434,0.7436,0.7437,0.7487,0.7487,0.7487,0.7487,0.7585,0.7589,0.7593,0.7616,0,0,0.7605,0.7607,0,0,0,0,0,0,0,0,0.7265,0.7275,0.7368,0.7373,0.7378,0.7448,0.7422,0.7497,0.7487,0.7446,0.7487,0.7487,0.7541,0.7549,0.7567,0.7621,0.7625,0.7606,0.7608,0.761,0.7611,0,0,0,0,0,0,0,0.726,0.7271,0.7375,0.7369,0.7375,0.7388,0.7399,0.7437,0.7492,0.745,0.7453,0.7464,0.7544,0.7563,0.757,0.7627,0.7605,0.7609,0.7611,0.7613,0.7706,0.7707,0,0,0,0,0,0,0.7248,0.7266,0.7372,0.7378,0.7321,0.7391,0.7403,0.7426,0.7492,0.7502,0.7464,0.7466,0.7556,0.7565,0.7573,0.7606,0.761,0.7613,0.7616,0.7706,0.7706,0.7707,0,0,0,0,0,0,0.7245,0.7257,0.7368,0.7323,0.7338,0.7393,0.7418,0.7428,0.7447,0.7503,0.7513,0.7474,0.7557,0.7568,0.7606,0.761,0.7615,0.7619,0.7706,0.7706,0.7706,0.767,0,0,0,0,0,0,0.7241,0.7256,0.7265,0.7323,0.7341,0.7398,0.7418,0.7429,0.7454,0.7457,0.7514,0.7524,0.7557,0.7599,0.7609,0.7616,0.7622,0.7706,0.7706,0.7706,0.7671,0.7669,0.7667,0,0,0,0,0,0.7236,0.725,0.7265,0.7277,0.7353,0.7398,0.7409,0.7447,0.7454,0.7464,0.75,0.7522,0.7608,0.7603,0.7615,0.7622,0.7706,0.7706,0.7706,0.7672,0.767,0.7668,0,0,0,0,0,0,0.7191,0.7259,0.7276,0.731,0.7348,0.7407,0.742,0.7443,0.748,0.7481,0.7528,0.754,0.7574,0.7602,0.7595,0.7649,0.7659,0.7662,0.7629,0.7627,0.7625,0.7618,0.7625,0,0,0,0,0,0.7185,0.7216,0.7274,0.7298,0.7317,0.7365,0.7386,0.7413,0.7454,0.747,0.7509,0.7549,0.7585,0.7607,0.7644,0.7676,0.7689,0.7687,0.7685,0.7683,0.7685,0.7705,0.7705,0.7707,0.7707,0.7707,0,0,0.7173,0.7214,0.7231,0.729,0.7323,0.7355,0.7378,0.741,0.7435,0.7475,0.7514,0.7544,0.7591,0.7626,0.7644,0.765,0.7687,0.7683,0.7681,0.7684,0.7705,0.7705,0.7704,0.7708,0.7708,0.7707,0,0,0.7168,0.7202,0.7227,0.7259,0.7308,0.7341,0.7347,0.7403,0.7424,0.7463,0.7495,0.7524,0.7585,0.7618,0.7642,0.7651,0.7673,0.7661,0.7651,0.767,0.767,0.767,0.7674,0.7675,0.7663,0.7663,0.7663,0,0.7147,0.7196,0.7236,0.7267,0.7293,0.7332,0.7358,0.7387,0.7446,0.7463,0.747,0.7548,0.7582,0.7626,0.7629,0.7647,0.7656,0.7655,0.7667,0.7667,0.7668,0.7672,0.7674,0.7661,0.7661,0.7662,0.7662,0,0.7168,0.7202,0.7216,0.7272,0.7299,0.7327,0.7373,0.7396,0.742,0.7452,0.7492,0.7535,0.7581,0.7593,0.7617,0.7641,0.7644,0.7658,0.767,0.7665,0.767,0.7672,0.7659,0.7659,0.766,0.766,0,0,0.7137,0.7216,0.7221,0.7247,0.7305,0.7332,0.7362,0.7408,0.7427,0.7466,0.7494,0.7545,0.7559,0.7586,0.7614,0.7631,0.7636,0.7644,0.7646,0.7642,0.7667,0.7656,0.7658,0.7652,0.7652,0.7652,0.7663,0,0.7141,0.7197,0.7235,0.7277,0.7309,0.7346,0.7373,0.7412,0.7442,0.7474,0.7508,0.7544,0.756,0.7577,0.7595,0.7632,0.7642,0.7631,0.7678,0.7679,0.7665,0.766,0.7649,0.7657,0.7665,0.7666,0.7666,0,0.7152,0.7191,0.7236,0.7292,0.7306,0.733,0.7375,0.7405,0.745,0.7471,0.7503,0.7531,0.7566,0.7574,0.7623,0.7614,0.7636,0.7657,0.7658,0.7664,0.7672,0.7667,0.7661,0.7662,0.7669,0.7669,0.7669,0,0.7126,0.719,0.7225,0.7246,0.7312,0.7328,0.7356,0.7401,0.7426,0.7466,0.7483,0.7526,0.7549,0.7582,0.7622,0.7624,0.7667,0.7678,0.7686,0.7685,0.7693,0.7692,0.7691,0.7706,0.7706,0.7706,0.7706,0,0.7127,0.7153,0.7214,0.7236,0.7267,0.7311,0.734,0.7371,0.7411,0.744,0.7476,0.7502,0.7553,0.7586,0.7617,0.7653,0.7663,0.7682,0.769,0.7679,0.7676,0.7694,0.7694,0.7706,0.7706,0.7706,0.7706,0,0.7103,0.7145,0.7186,0.7245,0.7261,0.7281,0.7332,0.7355,0.7388,0.7424,0.7435,0.7487,0.7527,0.757,0.7625,0.7646,0.7681,0.7692,0.7666,0.7671,0.7676,0.7676,0.7687,0.7691,0.7701,0.7701,0.7701,0,0.71,0.7121,0.7183,0.7205,0.7232,0.7267,0.7294,0.7338,0.7364,0.7417,0.7434,0.7477,0.7515,0.7578,0.762,0.7663,0.7676,0.7677,0.7682,0.7671,0.7677,0.7675,0.7678,0.7675,0.7674,0.7674,0.7674,0,0.7092,0.7112,0.7149,0.7193,0.7223,0.726,0.7298,0.7314,0.7366,0.7394,0.7436,0.7465,0.7521,0.7564,0.7612,0.7642,0.7667,0.7672,0.7676,0.7665,0.765,0.7659,0.7662,0.7671,0.7672,0.7672,0.7672,0.7672,0.708,0.7101,0.7148,0.7187,0.7221,0.7256,0.7281,0.7317,0.7353,0.7403,0.7427,0.747,0.7515,0.7583,0.7611,0.7646,0.7653,0.7659,0.766,0.7661,0.7659,0.7644,0.7654,0.7654,0.7655,0.7655,0.7655,0,0.7074,0.7106,0.7142,0.7195,0.7227,0.7248,0.7291,0.7316,0.7353,0.7394,0.743,0.7479,0.7521,0.7568,0.7613,0.7631,0.7644,0.7642,0.7641,0.7648,0.7649,0.7642,0.7631,0.7631,0.7631,0.7631,0.7631,0.7631,0.7075,0.7112,0.7138,0.7192,0.7225,0.7267,0.729,0.7323,0.7356,0.7409,0.7444,0.7474,0.7518,0.7566,0.7606,0.7619,0.7634,0.7629,0.7644,0.7645,0.7647,0.7649,0.7642,0.7631,0.7631,0.764,0.764,0.764]}]]